Regional Weather Roundup
Issued by NWS Sioux Falls, SD

Home | Current Version | Previous Version | Text Only | Print | Product List | Glossary On
Versions: 1 2 3 4 5 6 7 8 9 10 11 12 13 14 15 16 17 18 19 20 21 22 23 24 25 26 27 28 29 30 31 32 33 34 35 36 37 38 39 40 41 42 43 44 45 46 47 48 49 50
000
ASUS43 KFSD 031710
RWRFSD

WEATHER ROUNDUP FOR SE SOUTH DAKOTA/SW MINNESOTA/NW IOWA
NATIONAL WEATHER SERVICE SIOUX FALLS SD
1100 AM CST TUE MAR 03 2015

NOTE: "FAIR" INDICATES FEW OR NO CLOUDS BELOW 12,000 FEET WITH NO
SIGNIFICANT WEATHER AND OR OBSTRUCTIONS TO VISIBILITY.


SDZ038>040-050-052>070-031800-
SOUTHEAST SOUTH DAKOTA

CITY           SKY/WX    TMP DP  RH WIND       PRES   REMARKS
CHAMBERLAIN    MOSUNNY   16   5  62 N23G37    30.01R HAZE    WCI  -3
HURON          MOSUNNY   15   5  64 NW25G37   29.97R WCI  -4
MADISON        LGT SNOW  18  18 100 NW33G39   29.85R WCI  -3
MITCHELL       SNOW      18  12  77 NW33G41   29.96R VSB 1/2 WCI  -2
SIOUX FALLS    CLOUDY    21  15  78 NW28G38   29.83R BLWGSNOWWCI   3
WINNER         LGT SNOW  19   9  65 NW23G29   30.00S WCI   2
YANKTON        SUNNY    N/A N/A N/A NW30G43   29.90R
$$

MNZ071-072-080-081-089-090-097-098-031800-
SOUTHWEST MINNESOTA

CITY           SKY/WX    TMP DP  RH WIND       PRES   REMARKS
FAIRMONT       PTSUNNY   30  23  74 W22       29.69S WCI  17
JACKSON        CLOUDY    30  23  74 NW24G30   29.71R HAZE    WCI  16
LUVERNE        PTSUNNY   27  21  80 N24G31    29.80R HAZE    WCI  12
MARSHALL       CLOUDY    19  12  73 N31G41    29.79R VSB 1   WCI   0
MONTEVIDEO     CLOUDY    19  19 100 N30G40    29.80R FOG     WCI   0
PIPESTONE      LGT SNOW  19  16  86 N24G37    29.78R WCI   2
REDWOOD FALLS  LGT SNOW  23  17  78 NW20G37   29.75R WCI   8
TRACY          SNOW      22  18  83 NW28G36   29.77R VSB 1/2 WCI   4
WINDOM         MIX PCPN  23  19  86 NW28G35   29.73R WCI   6
WORTHINGTON    CLOUDY   N/A N/A N/A N29G35    29.77R
$$

IAZ001>003-012>014-020>022-031-032-NEZ013-014-SDZ071-031800-
NORTHWEST IOWA

CITY           SKY/WX    TMP DP  RH WIND       PRES   REMARKS
CHEROKEE       PTSUNNY   32  26  80 NW18G26   29.75R WCI  20
DENISON        CLOUDY    30  30 100 NW20G25   29.74R WCI  18
ESTHERVILLE    PTSUNNY   30  24  78 NW21G30   29.71R WCI  17
LE MARS        CLOUDY    32  27  80 NW23G29   29.80R WCI  19
ORANGE CITY    CLOUDY    30  25  80 NW16G24   29.77R WCI  19
SHELDON        CLOUDY    30  25  80 NW24G35   29.75R WCI  16
SIOUX CITY     CLOUDY    33  25  72 NW22G30   29.79R WCI  21
SPENCER        MOSUNNY   33  25  72 NW20G28   29.72R WCI  21
STORM LAKE     CLOUDY    30  27  86 NW22G28   29.72R WCI  17
$$

ABBREVIATIONS USED IN REMARKS
   TC - TEMPERATURE IN CELSIUS
  WCI - WIND CHILL INDEX
   HX - HEAT INDEX
  VSB - VISIBILITY




USA.gov is the U.S. government's official web portal to all federal, state and local government web resources and services.